DELTA 2 R/B(1)

基本信息
目录编号:
20453
目录名称:
DELTA 2 R/B(1)
国际标识:
1990-008B
轨道中心:
EARTH
物体状态:
在轨
发射日期:
1990-01-24 UTC
国别:
美国 (US)
轨道信息
数据来源: 国际轨道数据
星历时间: 2026-07-13T06:15:41+0800
半长轴: 6727.765km
偏心率: 0.0060056
轨道倾角: 35.600°
近地点辐角: 354.611°
升交点赤经: 62.906°
平近点角: 5.398°
近地点: 309.223km
远地点: 390.033km
周期: 91.531分钟
每日圈数: 15.73246
详细信息
发射场:
AFETR
轨道高度:
LEO
数据来源:
AOE Integration Group
参考系:
TEME
时间系统:
UTC
历元类型:
SGP4
2D轨道图
3D轨道图
轨道高度分析图
轨道倾角分析图
轨道综合分析图
查看轨道综合分析图